When you browse on this site, cookies collect data to enhance your experience and personalize the content and advertising you see.
Visit our Privacy Policy to learn more. By continuing to use the site, you agree to this use of cookies and data.
  • en Belgique
  • Liste des pays
  • À 7 jours
  • Température de l'eau
  • Carte satellitaire
  • Carte météo
  • Widgets météo
  • user-avatar
    Se connecter

    Météo par heure à Batna

    Ce jour, 21 Novembre, Mercredi

    Heure Température Précipitation Vent Pression Humidité
    00:00 +8°C° 0 mm 3 m/s 668 mmHg 63%
    01:00 +8°C° 0 mm 3 m/s 668 mmHg 64%
    02:00 +8°C° 0 mm 3 m/s 668 mmHg 65%
    03:00 +7°C° 0 mm 3 m/s 668 mmHg 66%
    04:00 +7°C° 0 mm 3 m/s 668 mmHg 67%
    05:00 +7°C° 0 mm 3 m/s 669 mmHg 68%
    06:00 +7°C° 0 mm 3 m/s 669 mmHg 69%
    07:00 +8°C° 0 mm 3 m/s 670 mmHg 62%
    08:00 +10°C° 0 mm 4 m/s 671 mmHg 55%
    09:00 +12°C° 0 mm 4 m/s 671 mmHg 47%
    10:00 +12°C° 0 mm 4 m/s 672 mmHg 44%
    11:00 +13°C° 0 mm 5 m/s 672 mmHg 40%
    12:00 +14°C° 0 mm 5 m/s 672 mmHg 37%
    13:00 +14°C° 0 mm 5 m/s 672 mmHg 37%
    14:00 +14°C° 0 mm 4 m/s 672 mmHg 37%
    15:00 +14°C° 0 mm 4 m/s 672 mmHg 37%
    16:00 +13°C° 0 mm 3 m/s 672 mmHg 41%
    17:00 +12°C° 0 mm 3 m/s 672 mmHg 45%
    18:00 +12°C° 0 mm 2 m/s 672 mmHg 49%
    19:00 +10°C° 0 mm 2 m/s 672 mmHg 50%
    20:00 +10°C° 0 mm 2 m/s 672 mmHg 51%
    21:00 +10°C° 0 mm 2 m/s 673 mmHg 52%
    22:00 +10°C° 0 mm 2 m/s 673 mmHg 53%
    23:00 +9°C° 0 mm 2 m/s 673 mmHg 54%

    Demain, 22 Novembre, Jeudi

    Heure Température Précipitation Vent Pression Humidité
    00:00 +9°C° 0 mm 3 m/s 672 mmHg 55%
    01:00 +9°C° 0 mm 3 m/s 672 mmHg 56%
    02:00 +9°C° 0 mm 3 m/s 672 mmHg 56%
    03:00 +9°C° 0 mm 3 m/s 672 mmHg 57%
    04:00 +9°C° 0 mm 2 m/s 672 mmHg 56%
    05:00 +9°C° 0 mm 2 m/s 672 mmHg 55%
    06:00 +9°C° 0 mm 2 m/s 672 mmHg 54%
    07:00 +10°C° 0 mm 2 m/s 673 mmHg 48%
    08:00 +13°C° 0 mm 2 m/s 674 mmHg 42%
    09:00 +14°C° 0 mm 2 m/s 674 mmHg 36%
    10:00 +14°C° 0 mm 3 m/s 674 mmHg 34%
    11:00 +16°C° 0 mm 3 m/s 674 mmHg 31%
    12:00 +17°C° 0 mm 4 m/s 674 mmHg 28%
    13:00 +17°C° 0 mm 4 m/s 674 mmHg 29%
    14:00 +17°C° 0 mm 4 m/s 674 mmHg 29%
    15:00 +17°C° 0 mm 4 m/s 673 mmHg 30%
    16:00 +14°C° 0 mm 3 m/s 673 mmHg 35%
    17:00 +13°C° 0 mm 3 m/s 673 mmHg 40%
    18:00 +12°C° 0 mm 2 m/s 673 mmHg 44%
    19:00 +12°C° 0 mm 2 m/s 673 mmHg 46%
    20:00 +10°C° 0 mm 2 m/s 673 mmHg 47%
    21:00 +10°C° 0 mm 2 m/s 673 mmHg 49%
    22:00 +9°C° 0 mm 2 m/s 673 mmHg 48%
    23:00 +9°C° 0 mm 2 m/s 672 mmHg 48%

    Après-demain, 23 Novembre, Vendredi

    Heure Température Précipitation Vent Pression Humidité
    00:00 +9°C° 0 mm 2 m/s 672 mmHg 47%
    01:00 +8°C° 0 mm 2 m/s 672 mmHg 47%
    02:00 +8°C° 0 mm 2 m/s 672 mmHg 47%
    03:00 +8°C° 0 mm 2 m/s 672 mmHg 47%
    04:00 +8°C° 0 mm 2 m/s 672 mmHg 48%
    05:00 +7°C° 0 mm 2 m/s 672 mmHg 48%
    06:00 +7°C° 0 mm 2 m/s 671 mmHg 49%
    07:00 +9°C° 0 mm 2 m/s 672 mmHg 45%
    08:00 +11°C° 0 mm 3 m/s 673 mmHg 41%
    09:00 +12°C° 0 mm 3 m/s 674 mmHg 36%
    10:00 +13°C° 0 mm 4 m/s 674 mmHg 35%
    11:00 +14°C° 0 mm 4 m/s 674 mmHg 34%
    12:00 +16°C° 0 mm 5 m/s 673 mmHg 33%
    13:00 +15°C° 0 mm 5 m/s 673 mmHg 34%
    14:00 +15°C° 0 mm 4 m/s 673 mmHg 35%
    15:00 +15°C° 0 mm 4 m/s 672 mmHg 36%
    16:00 +14°C° 0 mm 3 m/s 672 mmHg 40%
    17:00 +13°C° 0 mm 3 m/s 672 mmHg 44%
    18:00 +13°C° 0 mm 2 m/s 672 mmHg 48%
    19:00 +12°C° 0 mm 2 m/s 672 mmHg 49%
    20:00 +12°C° 0 mm 2 m/s 672 mmHg 49%
    21:00 +12°C° 0 mm 2 m/s 673 mmHg 50%
    22:00 +12°C° 0 mm 2 m/s 672 mmHg 51%
    23:00 +10°C° 0 mm 2 m/s 672 mmHg 52%

    24 Novembre, Samedi

    Heure Température Précipitation Vent Pression Humidité
    00:00 +10°C° 0 mm 2 m/s 672 mmHg 53%
    01:00 +10°C° 0 mm 2 m/s 672 mmHg 53%
    02:00 +10°C° 0 mm 2 m/s 672 mmHg 53%
    03:00 +10°C° 0 mm 2 m/s 671 mmHg 53%
    04:00 +11°C° 0 mm 1 m/s 671 mmHg 53%
    05:00 +11°C° 0 mm 1 m/s 671 mmHg 54%
    06:00 +11°C° 0 mm 1 m/s 671 mmHg 54%
    07:00 +12°C° 0 mm 1 m/s 672 mmHg 50%
    08:00 +13°C° 0 mm 1 m/s 672 mmHg 46%
    09:00 +14°C° 0 mm 2 m/s 673 mmHg 42%
    10:00 +15°C° 0 mm 2 m/s 672 mmHg 41%
    11:00 +16°C° 0 mm 3 m/s 672 mmHg 40%
    12:00 +16°C° 0 mm 3 m/s 672 mmHg 38%
    13:00 +16°C° 0 mm 3 m/s 671 mmHg 40%
    14:00 +16°C° 0 mm 3 m/s 671 mmHg 41%
    15:00 +15°C° 0 mm 4 m/s 671 mmHg 42%
    16:00 +13°C° 0.5 mm 4 m/s 671 mmHg 50%
    17:00 +12°C° 0.5 mm 4 m/s 670 mmHg 59%
    18:00 +11°C° 0.5 mm 4 m/s 670 mmHg 67%
    19:00 +10°C° 0.7 mm 3 m/s 670 mmHg 71%
    20:00 +10°C° 0.7 mm 2 m/s 670 mmHg 75%
    21:00 +9°C° 0.7 mm 2 m/s 670 mmHg 78%
    22:00 +9°C° 0.2 mm 2 m/s 670 mmHg 79%
    23:00 +9°C° 0.2 mm 2 m/s 669 mmHg 81%

    25 Novembre, Dimanche

    Heure Température Précipitation Vent Pression Humidité
    00:00 +9°C° 0.2 mm 2 m/s 669 mmHg 82%
    01:00 +9°C° 0.9 mm 2 m/s 668 mmHg 84%
    02:00 +9°C° 0.9 mm 2 m/s 668 mmHg 87%
    03:00 +9°C° 0.9 mm 2 m/s 668 mmHg 89%
    04:00 +9°C° 0.6 mm 2 m/s 668 mmHg 89%
    05:00 +9°C° 0.6 mm 2 m/s 668 mmHg 89%
    06:00 +9°C° 0.6 mm 2 m/s 668 mmHg 90%
    07:00 +9°C° 0.2 mm 2 m/s 669 mmHg 86%
    08:00 +9°C° 0.2 mm 2 m/s 669 mmHg 82%
    09:00 +10°C° 0.2 mm 2 m/s 670 mmHg 79%
    10:00 +12°C° 0 mm 2 m/s 670 mmHg 72%
    11:00 +12°C° 0 mm 3 m/s 670 mmHg 66%
    12:00 +12°C° 0 mm 3 m/s 670 mmHg 60%
    13:00 +12°C° 0 mm 3 m/s 670 mmHg 57%
    14:00 +13°C° 0 mm 3 m/s 670 mmHg 55%
    15:00 +14°C° 0 mm 2 m/s 669 mmHg 53%
    16:00 +13°C° 0 mm 2 m/s 669 mmHg 57%
    17:00 +12°C° 0 mm 1 m/s 669 mmHg 62%
    18:00 +11°C° 0 mm 1 m/s 669 mmHg 66%
    19:00 +11°C° 0 mm 1 m/s 670 mmHg 66%
    20:00 +9°C° 0 mm 2 m/s 670 mmHg 66%
    21:00 +9°C° 0 mm 2 m/s 670 mmHg 66%
    22:00 +9°C° 0 mm 2 m/s 670 mmHg 67%
    23:00 +9°C° 0 mm 2 m/s 670 mmHg 68%

    26 Novembre, Lundi

    Heure Température Précipitation Vent Pression Humidité
    00:00 +8°C° 0 mm 2 m/s 670 mmHg 69%
    01:00 +8°C° 0 mm 2 m/s 669 mmHg 72%
    02:00 +8°C° 0 mm 2 m/s 669 mmHg 75%
    03:00 +8°C° 0 mm 2 m/s 669 mmHg 78%
    04:00 +7°C° 0 mm 2 m/s 669 mmHg 80%
    05:00 +7°C° 0 mm 2 m/s 669 mmHg 81%
    06:00 +7°C° 0 mm 2 m/s 669 mmHg 83%
    07:00 +8°C° 0 mm 2 m/s 670 mmHg 77%
    08:00 +10°C° 0 mm 2 m/s 671 mmHg 71%
    09:00 +12°C° 0 mm 2 m/s 671 mmHg 64%
    10:00 +13°C° 0 mm 2 m/s 671 mmHg 61%
    11:00 +13°C° 0 mm 3 m/s 671 mmHg 58%
    12:00 +14°C° 0 mm 3 m/s 671 mmHg 55%
    13:00 +14°C° 0 mm 3 m/s 671 mmHg 55%
    14:00 +14°C° 0 mm 3 m/s 671 mmHg 55%
    15:00 +14°C° 0 mm 3 m/s 671 mmHg 55%
    16:00 +14°C° 0 mm 2 m/s 671 mmHg 61%
    17:00 +13°C° 0 mm 2 m/s 671 mmHg 66%
    18:00 +12°C° 0 mm 1 m/s 671 mmHg 72%
    19:00 +12°C° 0 mm 1 m/s 671 mmHg 73%
    20:00 +12°C° 0 mm 1 m/s 671 mmHg 75%
    21:00 +11°C° 0 mm 1 m/s 671 mmHg 76%
    22:00 +11°C° 0 mm 1 m/s 671 mmHg 78%
    23:00 +11°C° 0 mm 1 m/s 671 mmHg 79%
    Voir plus